Simultaneous Nadir Overpasses (SNOs) Predictions

Prediction of SNOs between TERRA and METOP-C Satellite Orbit:

Table of predicted SNOs for the next 14.0 days since TLE Epoch: 9/25/2021
Index Date (TERRA) Time (TERRA) Lat,Lon (TERRA) SZA (TERRA ) Date (METOP-C) Time (METOP-C) Lat,Lon (METOP-C) SZA (METOP-C ) Distance(km) Time Diff (sec)
1 09/27/2021 05:47:04 -81.30, -41.26 94.15 09/27/2021 05:46:51 -81.30, -41.21 94.15 0.87 13
2 09/27/2021 06:36:30 81.31, 126.47 85.88 09/27/2021 06:37:31 81.31, 126.34 85.89 2.18 61
3 09/30/2021 01:21:15 -81.31, 25.23 93.03 09/30/2021 01:21:10 -81.30, 25.21 93.04 0.69 5
4 09/30/2021 02:10:41 81.31,-167.08 87.00 09/30/2021 02:11:49 81.31,-166.93 87.05 2.55 68
5 10/02/2021 20:06:01 81.29, -76.33 88.02 10/02/2021 20:04:50 81.29, -76.25 87.99 1.42 71
6 10/02/2021 20:55:27 -81.31, 91.66 91.92 10/02/2021 20:55:30 -81.30, 91.60 91.93 1.14 3
7 10/05/2021 15:40:13 81.28, -9.98 89.10 10/05/2021 15:39:10 81.29, -9.95 89.08 0.92 63
8 10/05/2021 16:29:39 -81.30, 158.04 90.83 10/05/2021 16:29:50 -81.30, 157.97 90.84 1.16 11
9 10/08/2021 11:14:24 81.30, 56.70 90.23 10/08/2021 11:13:29 81.29, 56.72 90.21 0.39 55



Historial Predications of SNOs between TERRA and METOP-C
